Tracking 19908 objects as of 19-Oct-2019
HD Live streaming from Space Station
objects crossing your sky now

TELECOM 1A

Track TELECOM 1A now!
TELECOM 1A is classified as:


NORAD ID: 15159
Int'l Code: 1984-081B
Perigee: 36,170.6 km
Apogee: 36,485.0 km
Inclination: 15.2 °
Period: 1,463.5 minutes
Semi major axis: 42698 km
RCS: 10.2909 m2 (large)
Launch date: August 4, 1984
Source: France (FR)
Launch site: FRENCH GUIANA (FRGUI)
aabbcc
Your satellite tracking list
Your tracking list is empty




NASA's NSSDC Master Catalog

Two Line Element Set (TLE):
1 15159U 84081B   19291.11664841 -.00000043 +00000-0 +00000-0 0  9993
2 15159 015.2285 353.0035 0036822 346.6048 003.4283 00.98396446094661
Source of the keplerian elements: AFSPC